Tracking 31027 objects as of 19-Jul-2025
HD Live streaming from Space Station
objects crossing your sky now

USA 105

Track USA 105 now!
USA 105 is classified as:


NORAD ID: 23223
Int'l Code: 1994-054A
Perigee: 35,672.4 km
Apogee: 35,916.1 km
Inclination: 13.1 °
Period: 1,436.1 minutes
Semi major axis: 42165 km
RCS: Unknown
Launch date: August 27, 1994
Source: United States (US)
Launch site: AIR FORCE EASTERN TEST RANGE (AFETR)

In the $1 billion range; ELINT; signals intelligence.
Your satellite tracking list
ABS 3
Track 1 satellite(s)




NASA's NSSDC Master Catalog

Two Line Element Set (TLE):
1 23223U 94054A   25093.39197103 0.00000000  00000-0  00000-0 0    09
2 23223  13.1261  13.4918 0028888  75.0452 285.2981  1.00270000    06
Source of the keplerian elements: McCants